SWA1254 KMCO-KPVD

Flight info

Callsign SWA1254
Flight time 2h 19m
Altitude 37000
Route N0464F370 FATHE4 VIYAP Q87 JROSS JOHAR Q109 DFENC SAWED Q97 ZJAAY Q167 ORCHA JORDN JORDN2
Aircraft B738/M-SADE2E3GIJ4RWZ/LB1D1

Departure

Time 2026-05-01 11:29
Airport Orlando International Airport (KMCO)

Arrival

Time 2026-05-01 13:48
Airport Rhode Island T. F. Green International Airport (KPVD)
Time Latitude Longitude Altitude Speed Heading
2026-05-01 11:16 28.43606 -81.30240 93 ft 0 kts 179°
2026-05-01 11:22 28.43615 -81.30240 95 ft 4 kts 179°
2026-05-01 11:23 28.43642 -81.30241 94 ft 3 kts 179°
2026-05-01 11:23 28.43663 -81.30242 92 ft 4 kts 166°
2026-05-01 11:23 28.43687 -81.30253 94 ft 4 kts 138°
2026-05-01 11:23 28.43702 -81.30276 94 ft 4 kts 96°
2026-05-01 11:24 28.43700 -81.30294 92 ft 0 kts 51°
2026-05-01 11:25 28.43710 -81.30279 94 ft 4 kts 52°
2026-05-01 11:25 28.43734 -81.30244 94 ft 7 kts 51°
2026-05-01 11:26 28.43771 -81.30191 95 ft 10 kts 52°
2026-05-01 11:26 28.43822 -81.30012 96 ft 13 kts 101°
2026-05-01 11:26 28.43774 -81.29931 95 ft 13 kts 137°
2026-05-01 11:27 28.43694 -81.29892 95 ft 13 kts 169°
2026-05-01 11:27 28.43607 -81.29888 95 ft 12 kts 179°
2026-05-01 11:27 28.43549 -81.29835 95 ft 12 kts 92°
2026-05-01 11:27 28.43548 -81.29740 97 ft 12 kts 91°
2026-05-01 11:28 28.43550 -81.29641 98 ft 13 kts 87°
2026-05-01 11:28 28.43496 -81.29590 98 ft 12 kts 179°
2026-05-01 11:28 28.43379 -81.29586 99 ft 36 kts 179°
2026-05-01 11:29 28.41959 -81.29570 116 ft 156 kts 180°
2026-05-01 11:29 28.40845 -81.29562 672 ft 163 kts 181°
2026-05-01 11:29 28.38383 -81.29375 1598 ft 207 kts 158°
2026-05-01 11:30 28.37105 -81.28451 2013 ft 224 kts 147°
2026-05-01 11:30 28.35787 -81.27458 2578 ft 231 kts 143°
2026-05-01 11:30 28.34797 -81.26029 3313 ft 233 kts 110°
2026-05-01 11:30 28.34632 -81.24239 4148 ft 230 kts 78°
2026-05-01 11:31 28.35295 -81.22653 4873 ft 232 kts 46°
2026-05-01 11:31 28.36655 -81.21662 5537 ft 235 kts 12°
2026-05-01 11:31 28.38277 -81.21553 6240 ft 236 kts 352°
2026-05-01 11:31 28.39916 -81.21772 6978 ft 237 kts 348°
2026-05-01 11:32 28.41546 -81.22046 7721 ft 238 kts 347°
2026-05-01 11:32 28.43144 -81.22321 8436 ft 239 kts 346°
2026-05-01 11:32 28.44799 -81.22603 9160 ft 241 kts 345°
2026-05-01 11:32 28.46442 -81.22877 9878 ft 243 kts 345°
2026-05-01 11:33 28.48136 -81.23157 10419 ft 252 kts 345°
2026-05-01 11:33 28.49959 -81.23461 10620 ft 277 kts 345°
2026-05-01 11:33 28.51939 -81.23788 10813 ft 301 kts 346°
2026-05-01 11:33 28.54092 -81.24137 10982 ft 324 kts 346°
2026-05-01 11:34 28.56409 -81.24506 11151 ft 346 kts 347°
2026-05-01 11:34 28.58851 -81.24889 11499 ft 359 kts 347°
2026-05-01 11:34 28.61347 -81.25275 12111 ft 363 kts 347°
2026-05-01 11:34 28.63853 -81.25661 12877 ft 362 kts 346°
2026-05-01 11:35 28.66359 -81.26049 13626 ft 364 kts 346°
2026-05-01 11:35 28.68872 -81.26442 14296 ft 367 kts 346°
2026-05-01 11:35 28.71388 -81.26838 14858 ft 372 kts 346°
2026-05-01 11:35 28.73965 -81.27245 15490 ft 376 kts 346°
2026-05-01 11:36 28.76567 -81.27654 16145 ft 378 kts 346°
2026-05-01 11:36 28.79186 -81.28067 16755 ft 381 kts 347°
2026-05-01 11:36 28.81833 -81.28484 17346 ft 385 kts 347°
2026-05-01 11:36 28.84509 -81.28895 17925 ft 390 kts 348°
2026-05-01 11:37 28.87230 -81.29178 18467 ft 395 kts 351°
2026-05-01 11:37 28.89957 -81.29388 18963 ft 398 kts 351°
2026-05-01 11:37 28.92769 -81.29595 19444 ft 401 kts 351°
2026-05-01 11:37 28.95527 -81.29815 19901 ft 405 kts 351°
2026-05-01 11:38 28.98348 -81.30053 20383 ft 408 kts 350°
2026-05-01 11:38 29.01174 -81.30323 20829 ft 410 kts 349°
2026-05-01 11:38 29.04027 -81.30648 21282 ft 413 kts 349°
2026-05-01 11:38 29.06898 -81.30982 21725 ft 416 kts 349°
2026-05-01 11:39 29.09796 -81.31312 22132 ft 420 kts 349°
2026-05-01 11:39 29.12723 -81.31606 22539 ft 424 kts 351°
2026-05-01 11:39 29.15687 -81.31805 22927 ft 428 kts 352°
2026-05-01 11:39 29.18670 -81.31963 23325 ft 431 kts 352°
2026-05-01 11:40 29.21686 -81.32115 23670 ft 434 kts 352°
2026-05-01 11:40 29.24673 -81.32271 23986 ft 436 kts 352°
2026-05-01 11:40 29.27708 -81.32438 24302 ft 438 kts 351°
2026-05-01 11:40 29.30768 -81.32615 24596 ft 441 kts 351°
2026-05-01 11:41 29.33838 -81.32798 24933 ft 443 kts 351°
2026-05-01 11:41 29.36920 -81.32983 25275 ft 444 kts 351°
2026-05-01 11:41 29.40014 -81.33170 25609 ft 445 kts 351°
2026-05-01 11:41 29.43117 -81.33357 25925 ft 447 kts 351°
2026-05-01 11:42 29.46240 -81.33546 26234 ft 449 kts 351°
2026-05-01 11:42 29.49366 -81.33735 26543 ft 451 kts 351°
2026-05-01 11:42 29.52503 -81.33925 26845 ft 453 kts 351°
2026-05-01 11:42 29.55658 -81.34115 27139 ft 455 kts 351°
2026-05-01 11:43 29.58827 -81.34306 27410 ft 457 kts 351°
2026-05-01 11:43 29.62011 -81.34499 27685 ft 459 kts 351°
2026-05-01 11:43 29.65166 -81.34689 27973 ft 460 kts 351°
2026-05-01 11:44 29.71592 -81.35060 28529 ft 463 kts 351°
2026-05-01 11:44 29.74819 -81.35243 28791 ft 465 kts 351°
2026-05-01 11:44 29.78063 -81.35428 29052 ft 467 kts 351°
2026-05-01 11:44 29.80209 -81.35550 29265 ft 467 kts 351°
2026-05-01 11:45 29.84541 -81.35795 29845 ft 464 kts 351°
2026-05-01 11:45 29.86668 -81.35915 30173 ft 461 kts 350°
2026-05-01 11:45 29.89861 -81.36096 30618 ft 457 kts 350°
2026-05-01 11:45 29.93032 -81.36277 30993 ft 456 kts 350°
2026-05-01 11:46 29.96193 -81.36460 31317 ft 455 kts 350°
2026-05-01 11:46 29.99359 -81.36643 31662 ft 454 kts 350°
2026-05-01 11:46 30.02512 -81.36826 32063 ft 452 kts 350°
2026-05-01 11:46 30.05646 -81.37006 32474 ft 450 kts 350°
2026-05-01 11:47 30.08762 -81.37185 32857 ft 448 kts 349°
2026-05-01 11:47 30.11876 -81.37365 33247 ft 447 kts 349°
2026-05-01 11:47 30.14956 -81.37541 33832 ft 440 kts 348°
2026-05-01 11:47 30.17954 -81.37711 34319 ft 434 kts 348°
2026-05-01 11:48 30.20975 -81.37886 34601 ft 434 kts 348°
2026-05-01 11:48 30.24004 -81.38065 34791 ft 436 kts 348°
2026-05-01 11:48 30.27038 -81.38245 35023 ft 437 kts 348°
2026-05-01 11:48 30.30074 -81.38421 35363 ft 434 kts 348°
2026-05-01 11:49 30.33085 -81.38594 35715 ft 432 kts 348°
2026-05-01 11:49 30.36042 -81.38765 36006 ft 430 kts 348°
2026-05-01 11:49 30.39030 -81.38939 36252 ft 430 kts 348°
2026-05-01 11:49 30.42018 -81.39114 36519 ft 430 kts 348°
2026-05-01 11:50 30.45001 -81.39287 36806 ft 428 kts 348°
2026-05-01 11:50 30.47977 -81.39457 36945 ft 430 kts 348°
2026-05-01 11:50 30.53997 -81.39782 36956 ft 433 kts 348°
2026-05-01 11:51 30.59989 -81.40093 36955 ft 428 kts 348°
2026-05-01 11:51 30.65920 -81.40404 36963 ft 425 kts 348°
2026-05-01 11:52 30.71823 -81.40721 36965 ft 424 kts 348°
2026-05-01 11:52 30.77710 -81.41039 36958 ft 423 kts 348°
2026-05-01 11:53 30.83567 -81.41354 36955 ft 424 kts 348°
2026-05-01 11:53 30.89463 -81.41672 36951 ft 424 kts 348°
2026-05-01 11:54 30.95382 -81.41991 36942 ft 426 kts 348°
2026-05-01 11:54 31.01321 -81.42311 36943 ft 428 kts 347°
2026-05-01 11:55 31.07280 -81.42633 36939 ft 429 kts 347°
2026-05-01 11:55 31.13211 -81.42952 36934 ft 430 kts 347°
2026-05-01 11:56 31.19197 -81.43275 36936 ft 431 kts 347°
2026-05-01 11:56 31.25271 -81.42910 37005 ft 449 kts
2026-05-01 11:57 31.28337 -81.41960 36951 ft 462 kts
2026-05-01 11:57 31.31332 -81.40472 36972 ft 469 kts 14°
2026-05-01 11:57 31.37246 -81.37172 36947 ft 470 kts 15°
2026-05-01 11:58 31.43105 -81.33899 36944 ft 468 kts 14°
2026-05-01 11:59 31.51935 -81.29075 36969 ft 465 kts 14°
2026-05-01 11:59 31.57805 -81.25880 36944 ft 464 kts 14°
2026-05-01 12:00 31.66588 -81.21083 36929 ft 463 kts 14°
2026-05-01 12:01 31.75279 -81.16328 36923 ft 461 kts 14°
2026-05-01 12:01 31.81100 -81.13139 36917 ft 461 kts 14°
2026-05-01 12:02 31.86925 -81.09941 36915 ft 462 kts 14°
2026-05-01 12:02 31.92751 -81.06738 36909 ft 462 kts 14°
2026-05-01 12:03 31.98589 -81.03525 36913 ft 464 kts 14°
2026-05-01 12:03 32.04392 -81.00308 36948 ft 465 kts 14°
2026-05-01 12:04 32.10251 -80.97028 36920 ft 467 kts 14°
2026-05-01 12:04 32.16129 -80.93730 36949 ft 468 kts 14°
2026-05-01 12:05 32.22014 -80.90426 36943 ft 468 kts 14°
2026-05-01 12:05 32.30828 -80.85471 36996 ft 467 kts 14°
2026-05-01 12:06 32.36698 -80.82167 36967 ft 466 kts 14°
2026-05-01 12:06 32.42558 -80.78862 36960 ft 465 kts 14°
2026-05-01 12:07 32.48360 -80.75585 36963 ft 464 kts 14°
2026-05-01 12:07 32.54181 -80.72294 36962 ft 463 kts 14°
2026-05-01 12:08 32.60000 -80.69000 36967 ft 463 kts 13°
2026-05-01 12:08 32.65802 -80.65710 36961 ft 462 kts 13°
2026-05-01 12:09 32.71490 -80.62005 36956 ft 479 kts 25°
2026-05-01 12:09 32.74054 -80.59387 36956 ft 492 kts 34°
2026-05-01 12:09 32.76459 -80.56476 36966 ft 495 kts 36°
2026-05-01 12:10 32.83558 -80.47533 36965 ft 496 kts 35°
2026-05-01 12:11 32.90678 -80.38692 36969 ft 494 kts 35°
2026-05-01 12:11 32.95457 -80.32813 36976 ft 494 kts 34°
2026-05-01 12:12 33.00226 -80.26941 36985 ft 494 kts 35°
2026-05-01 12:12 33.04997 -80.21051 36981 ft 494 kts 35°
2026-05-01 12:13 33.09762 -80.15157 36964 ft 494 kts 35°
2026-05-01 12:13 33.14527 -80.09251 36996 ft 493 kts 35°
2026-05-01 12:14 33.19284 -80.03347 37002 ft 493 kts 35°
2026-05-01 12:14 33.23926 -79.97576 37001 ft 494 kts 35°
2026-05-01 12:15 33.28685 -79.91649 37026 ft 494 kts 35°
2026-05-01 12:15 33.33460 -79.85695 37006 ft 495 kts 35°
2026-05-01 12:16 33.38240 -79.79722 36995 ft 496 kts 35°
2026-05-01 12:16 33.42983 -79.73784 37002 ft 497 kts 35°
2026-05-01 12:17 33.47762 -79.67792 36989 ft 498 kts 35°
2026-05-01 12:17 33.52542 -79.61787 37044 ft 498 kts 35°
2026-05-01 12:18 33.57336 -79.55758 37010 ft 500 kts 35°
2026-05-01 12:18 33.62142 -79.49701 37003 ft 501 kts 35°
2026-05-01 12:19 33.66955 -79.43623 37002 ft 502 kts 35°
2026-05-01 12:19 33.71774 -79.37528 37005 ft 503 kts 35°
2026-05-01 12:20 33.76584 -79.31432 37071 ft 503 kts 35°
2026-05-01 12:20 33.81381 -79.25347 37049 ft 504 kts 35°
2026-05-01 12:21 33.86208 -79.19209 37040 ft 505 kts 35°
2026-05-01 12:21 33.91035 -79.13059 37035 ft 505 kts 35°
2026-05-01 12:22 33.95859 -79.06904 37036 ft 505 kts 35°
2026-05-01 12:22 34.00665 -79.00760 37048 ft 505 kts 35°
2026-05-01 12:23 34.05388 -78.94713 37030 ft 504 kts 35°
2026-05-01 12:23 34.10168 -78.88582 37008 ft 504 kts 35°
2026-05-01 12:24 34.14976 -78.82404 37012 ft 504 kts 35°
2026-05-01 12:24 34.19777 -78.76224 37008 ft 504 kts 35°
2026-05-01 12:25 34.22173 -78.73135 37109 ft 503 kts 34°
2026-05-01 12:25 34.26969 -78.66946 37056 ft 504 kts 35°
2026-05-01 12:26 34.31731 -78.60788 37053 ft 504 kts 34°
2026-05-01 12:26 34.36870 -78.55284 37055 ft 486 kts 24°
2026-05-01 12:26 34.39553 -78.52806 37037 ft 485 kts 24°
2026-05-01 12:27 34.47620 -78.45392 37063 ft 487 kts 24°
2026-05-01 12:28 34.55661 -78.37796 37058 ft 489 kts 25°
2026-05-01 12:29 34.63705 -78.30138 37042 ft 490 kts 25°
2026-05-01 12:29 34.71768 -78.22454 37052 ft 492 kts 25°
2026-05-01 12:30 34.79856 -78.14724 37050 ft 493 kts 25°
2026-05-01 12:31 34.85209 -78.09599 37054 ft 493 kts 25°
2026-05-01 12:31 34.90607 -78.04442 37065 ft 493 kts 25°
2026-05-01 12:32 34.95913 -77.99378 37068 ft 495 kts 24°
2026-05-01 12:32 35.02858 -77.92730 37056 ft 493 kts 25°
2026-05-01 12:33 35.08259 -77.87543 37063 ft 492 kts 25°
2026-05-01 12:33 35.13696 -77.82315 37056 ft 491 kts 25°
2026-05-01 12:34 35.19071 -77.77141 37076 ft 491 kts 24°
2026-05-01 12:34 35.24436 -77.71966 37078 ft 491 kts 25°
2026-05-01 12:35 35.29743 -77.66837 37086 ft 490 kts 25°
2026-05-01 12:35 35.35084 -77.61666 37075 ft 489 kts 25°
2026-05-01 12:36 35.40420 -77.56491 37072 ft 488 kts 25°
2026-05-01 12:36 35.45747 -77.51317 37072 ft 488 kts 25°
2026-05-01 12:37 35.51068 -77.46140 37073 ft 487 kts 25°
2026-05-01 12:37 35.56353 -77.40989 37077 ft 488 kts 25°
2026-05-01 12:38 35.61669 -77.35800 37092 ft 489 kts 25°
2026-05-01 12:38 35.67007 -77.30580 37082 ft 490 kts 25°
2026-05-01 12:39 35.72348 -77.25344 37071 ft 491 kts 25°
2026-05-01 12:39 35.77661 -77.20127 37060 ft 491 kts 25°
2026-05-01 12:40 35.83011 -77.14865 37097 ft 492 kts 25°
2026-05-01 12:40 35.88375 -77.09581 37083 ft 493 kts 25°
2026-05-01 12:41 35.93819 -77.04475 37068 ft 481 kts 18°
2026-05-01 12:41 35.99522 -77.00288 37064 ft 475 kts 15°
2026-05-01 12:42 36.05181 -76.96318 37124 ft 476 kts 15°
2026-05-01 12:42 36.10912 -76.92224 37083 ft 480 kts 16°
2026-05-01 12:43 36.16674 -76.88028 37074 ft 481 kts 16°
2026-05-01 12:43 36.22449 -76.83790 37064 ft 482 kts 17°
2026-05-01 12:44 36.28228 -76.79541 37097 ft 483 kts 17°
2026-05-01 12:45 36.39578 -76.71187 37065 ft 483 kts 17°
2026-05-01 12:45 36.45361 -76.66920 37064 ft 483 kts 17°
2026-05-01 12:46 36.51135 -76.62653 37107 ft 483 kts 17°
2026-05-01 12:46 36.56911 -76.58379 37097 ft 484 kts 17°
2026-05-01 12:47 36.62686 -76.54094 37089 ft 483 kts 17°
2026-05-01 12:47 36.68460 -76.49802 37070 ft 482 kts 17°
2026-05-01 12:48 36.74182 -76.45544 37091 ft 482 kts 17°
2026-05-01 12:48 36.79939 -76.41253 37095 ft 481 kts 17°
2026-05-01 12:49 36.85680 -76.36965 37086 ft 481 kts 17°
2026-05-01 12:49 36.91423 -76.32668 37086 ft 481 kts 17°
2026-05-01 12:50 36.97160 -76.28369 37095 ft 482 kts 17°
2026-05-01 12:50 37.02902 -76.24058 37097 ft 481 kts 17°
2026-05-01 12:51 37.08649 -76.19735 37065 ft 482 kts 17°
2026-05-01 12:52 37.17243 -76.13257 37070 ft 483 kts 17°
2026-05-01 12:52 37.25903 -76.06711 37070 ft 485 kts 17°
2026-05-01 12:53 37.34572 -76.00138 37075 ft 486 kts 17°
2026-05-01 12:54 37.40103 -75.95938 37080 ft 488 kts 18°
2026-05-01 12:54 37.48846 -75.89278 37066 ft 490 kts 18°
2026-05-01 12:55 37.57577 -75.82645 37071 ft 490 kts 17°
2026-05-01 12:56 37.63450 -75.78248 37068 ft 490 kts 17°
2026-05-01 12:56 37.69326 -75.73836 37079 ft 490 kts 17°
2026-05-01 12:57 37.75151 -75.69443 37083 ft 490 kts 18°
2026-05-01 12:57 37.83941 -75.62798 37070 ft 491 kts 18°
2026-05-01 12:58 37.89699 -75.57987 37065 ft 498 kts 22°
2026-05-01 12:59 37.98235 -75.50442 37056 ft 497 kts 22°
2026-05-01 12:59 38.06782 -75.42993 37066 ft 499 kts 23°
2026-05-01 13:00 38.15170 -75.35080 37060 ft 501 kts 25°
2026-05-01 13:01 38.23513 -75.27122 37056 ft 500 kts 25°
2026-05-01 13:02 38.31825 -75.19249 37060 ft 498 kts 25°
2026-05-01 13:07 38.88362 -74.59620 37055 ft 510 kts 33°
2026-05-01 13:07 38.90988 -74.56542 37051 ft 509 kts 33°
2026-05-01 13:08 38.96246 -74.50447 37047 ft 507 kts 31°
2026-05-01 13:08 39.01639 -74.44637 37054 ft 506 kts 30°
2026-05-01 13:09 39.07043 -74.38898 37045 ft 507 kts 31°
2026-05-01 13:09 39.12467 -74.33060 37033 ft 507 kts 31°
2026-05-01 13:10 39.17862 -74.27199 37035 ft 507 kts 31°
2026-05-01 13:10 39.23222 -74.21359 37040 ft 508 kts 32°
2026-05-01 13:11 39.28626 -74.15464 37040 ft 508 kts 32°
2026-05-01 13:11 39.34015 -74.09573 37036 ft 507 kts 32°
2026-05-01 13:12 39.39401 -74.03676 37044 ft 507 kts 33°
2026-05-01 13:12 39.44697 -73.97871 37034 ft 506 kts 32°
2026-05-01 13:13 39.50035 -73.92019 37028 ft 506 kts 32°
2026-05-01 13:13 39.55405 -73.86120 37032 ft 505 kts 33°
2026-05-01 13:14 39.60764 -73.80218 37042 ft 505 kts 33°
2026-05-01 13:14 39.66116 -73.74311 37021 ft 505 kts 33°
2026-05-01 13:15 39.71434 -73.68429 37021 ft 504 kts 33°
2026-05-01 13:15 39.76777 -73.62508 37031 ft 505 kts 33°
2026-05-01 13:16 39.82123 -73.56571 37022 ft 505 kts 33°
2026-05-01 13:16 39.87461 -73.50630 37021 ft 505 kts 33°
2026-05-01 13:17 39.98116 -73.38741 37019 ft 505 kts 34°
2026-05-01 13:18 40.06070 -73.29829 37002 ft 505 kts 34°
2026-05-01 13:18 40.11399 -73.23844 37010 ft 504 kts 34°
2026-05-01 13:19 40.16600 -73.17983 37008 ft 505 kts 35°
2026-05-01 13:19 40.21932 -73.11963 36529 ft 510 kts 35°
2026-05-01 13:20 40.24612 -73.08931 35989 ft 507 kts 34°
2026-05-01 13:20 40.27283 -73.05904 35355 ft 507 kts 34°
2026-05-01 13:20 40.29950 -73.02880 34695 ft 508 kts 34°
2026-05-01 13:21 40.34343 -72.97894 33488 ft 512 kts 35°
2026-05-01 13:21 40.37036 -72.94831 32708 ft 512 kts 35°
2026-05-01 13:21 40.40593 -72.90779 31763 ft 510 kts 35°
2026-05-01 13:21 40.43253 -72.87741 31281 ft 504 kts 35°
2026-05-01 13:22 40.45033 -72.85705 30925 ft 501 kts 35°
2026-05-01 13:22 40.47654 -72.82707 30406 ft 496 kts 35°
2026-05-01 13:22 40.50248 -72.79739 29896 ft 492 kts 36°
2026-05-01 13:22 40.52820 -72.76795 29282 ft 488 kts 36°
2026-05-01 13:23 40.55331 -72.73916 28770 ft 482 kts 35°
2026-05-01 13:23 40.57843 -72.71034 28242 ft 477 kts 35°
2026-05-01 13:23 40.60328 -72.68179 27729 ft 471 kts 35°
2026-05-01 13:23 40.62788 -72.65352 27205 ft 467 kts 35°
2026-05-01 13:24 40.65225 -72.62550 26696 ft 462 kts 35°
2026-05-01 13:24 40.67637 -72.59772 26207 ft 458 kts 36°
2026-05-01 13:24 40.70033 -72.57024 25706 ft 454 kts 34°
2026-05-01 13:25 40.74878 -72.51816 24737 ft 445 kts 33°
2026-05-01 13:25 40.77277 -72.49255 24252 ft 442 kts 33°
2026-05-01 13:25 40.79652 -72.46693 23762 ft 440 kts 34°
2026-05-01 13:25 40.81944 -72.43992 23125 ft 443 kts 39°
2026-05-01 13:26 40.84104 -72.41102 22627 ft 441 kts 41°
2026-05-01 13:26 40.86220 -72.38206 22095 ft 436 kts 41°
2026-05-01 13:26 40.88315 -72.35393 21595 ft 431 kts 40°
2026-05-01 13:26 40.90417 -72.32516 21115 ft 429 kts 45°
2026-05-01 13:27 40.92161 -72.29378 20654 ft 429 kts 56°
2026-05-01 13:27 40.93516 -72.25880 20204 ft 426 kts 63°
2026-05-01 13:27 40.95954 -72.18787 19269 ft 419 kts 64°
2026-05-01 13:28 40.98363 -72.11822 18370 ft 413 kts 63°
2026-05-01 13:28 40.99567 -72.08387 17882 ft 410 kts 63°
2026-05-01 13:29 41.01914 -72.01720 16951 ft 402 kts 63°
2026-05-01 13:29 41.04214 -71.95173 16076 ft 395 kts 63°
2026-05-01 13:30 41.10359 -71.83636 14380 ft 377 kts 46°
2026-05-01 13:31 41.13706 -71.78390 13491 ft 373 kts 47°
2026-05-01 13:31 41.18635 -71.70553 12126 ft 364 kts 47°
2026-05-01 13:32 41.21837 -71.65425 11276 ft 357 kts 47°
2026-05-01 13:33 41.26379 -71.58131 10463 ft 335 kts 47°
2026-05-01 13:33 41.29250 -71.53511 10178 ft 316 kts 47°
2026-05-01 13:34 41.31972 -71.49130 9881 ft 300 kts 47°
2026-05-01 13:34 41.34611 -71.44877 9275 ft 295 kts 47°
2026-05-01 13:35 41.37407 -71.40973 8707 ft 287 kts 35°
2026-05-01 13:35 41.38973 -71.39360 8435 ft 284 kts 33°
2026-05-01 13:35 41.42091 -71.36208 7921 ft 279 kts 33°
2026-05-01 13:36 41.43630 -71.34655 7656 ft 276 kts 33°
2026-05-01 13:36 41.45158 -71.33113 7396 ft 274 kts 33°
2026-05-01 13:36 41.48122 -71.30119 6908 ft 270 kts 33°
2026-05-01 13:37 41.49592 -71.28637 6668 ft 269 kts 33°
2026-05-01 13:37 41.51076 -71.27143 6478 ft 267 kts 33°
2026-05-01 13:37 41.52490 -71.25720 6276 ft 265 kts 33°
2026-05-01 13:37 41.54008 -71.24341 6046 ft 260 kts 21°
2026-05-01 13:38 41.57356 -71.22654 5640 ft 256 kts 16°
2026-05-01 13:38 41.59023 -71.21835 5433 ft 255 kts 16°
2026-05-01 13:38 41.60693 -71.21017 5214 ft 255 kts 16°
2026-05-01 13:39 41.62350 -71.20210 5018 ft 252 kts 16°
2026-05-01 13:39 41.63986 -71.19416 4806 ft 248 kts 16°
2026-05-01 13:39 41.65608 -71.18631 4598 ft 245 kts 16°
2026-05-01 13:39 41.67193 -71.17864 4424 ft 240 kts 16°
2026-05-01 13:40 41.68732 -71.17120 4232 ft 236 kts 16°
2026-05-01 13:40 41.70260 -71.16381 4052 ft 232 kts 16°
2026-05-01 13:40 41.71804 -71.15990 3832 ft 223 kts 348°
2026-05-01 13:40 41.73137 -71.16765 3688 ft 214 kts 327°
2026-05-01 13:41 41.74405 -71.17770 3559 ft 209 kts 329°
2026-05-01 13:41 41.75662 -71.18718 3427 ft 206 kts 330°
2026-05-01 13:41 41.76915 -71.19633 3308 ft 205 kts 331°
2026-05-01 13:41 41.78180 -71.20535 3192 ft 206 kts 332°
2026-05-01 13:42 41.79440 -71.21412 3087 ft 201 kts 332°
2026-05-01 13:42 41.80647 -71.22239 2942 ft 193 kts 333°
2026-05-01 13:42 41.81811 -71.23030 2805 ft 181 kts 333°
2026-05-01 13:42 41.82904 -71.23770 2645 ft 171 kts 333°
2026-05-01 13:43 41.83940 -71.24469 2494 ft 162 kts 333°
2026-05-01 13:43 41.84903 -71.25119 2358 ft 155 kts 334°
2026-05-01 13:43 41.85868 -71.25771 2216 ft 157 kts 333°
2026-05-01 13:43 41.86667 -71.26689 2174 ft 161 kts 306°
2026-05-01 13:44 41.87121 -71.28053 2152 ft 162 kts 282°
2026-05-01 13:44 41.86987 -71.29546 2149 ft 166 kts 248°
2026-05-01 13:44 41.86176 -71.30649 2190 ft 168 kts 221°
2026-05-01 13:44 41.85252 -71.31627 2173 ft 170 kts 224°
2026-05-01 13:45 41.84316 -71.32602 2157 ft 171 kts 220°
2026-05-01 13:45 41.83331 -71.33468 2167 ft 171 kts 217°
2026-05-01 13:45 41.82353 -71.34287 2163 ft 161 kts 216°
2026-05-01 13:45 41.81410 -71.35079 1973 ft 159 kts 217°
2026-05-01 13:46 41.80490 -71.35851 1774 ft 153 kts 216°
2026-05-01 13:46 41.79584 -71.36612 1567 ft 154 kts 217°
2026-05-01 13:46 41.78683 -71.37371 1381 ft 153 kts 216°
2026-05-01 13:46 41.77782 -71.38124 1159 ft 153 kts 218°
2026-05-01 13:47 41.76878 -71.38884 961 ft 151 kts 217°
2026-05-01 13:47 41.75988 -71.39632 749 ft 150 kts 216°
2026-05-01 13:47 41.75106 -71.40373 552 ft 151 kts 217°
2026-05-01 13:47 41.74224 -71.41115 388 ft 151 kts 215°
2026-05-01 13:48 41.73372 -71.41821 209 ft 149 kts 214°
2026-05-01 13:48 41.72514 -71.42540 54 ft 138 kts 215°
2026-05-01 13:48 41.71873 -71.43085 56 ft 78 kts 212°
2026-05-01 13:48 41.71537 -71.43370 57 ft 42 kts 212°
2026-05-01 13:49 41.71402 -71.43485 60 ft 16 kts 224°
2026-05-01 13:49 41.71420 -71.43553 63 ft 9 kts 305°
2026-05-01 13:49 41.71472 -71.43588 56 ft 8 kts 28°
2026-05-01 13:49 41.71520 -71.43552 59 ft 8 kts 29°
2026-05-01 13:50 41.71565 -71.43515 58 ft 8 kts 31°
2026-05-01 13:50 41.71620 -71.43469 58 ft 10 kts 32°
2026-05-01 13:50 41.71688 -71.43421 56 ft 12 kts
2026-05-01 13:50 41.71716 -71.43407 54 ft 4 kts 56°
2026-05-01 13:51 41.71755 -71.43359 53 ft 11 kts 33°
2026-05-01 13:51 41.71831 -71.43307 55 ft 13 kts 359°
2026-05-01 13:51 41.71893 -71.43387 57 ft 13 kts 304°
2026-05-01 13:51 41.71940 -71.43484 54 ft 12 kts 301°
2026-05-01 13:52 41.71985 -71.43580 61 ft 12 kts 301°
2026-05-01 13:52 41.72029 -71.43672 63 ft 12 kts 303°
2026-05-01 13:52 41.72074 -71.43757 57 ft 8 kts 326°
2026-05-01 13:52 41.72127 -71.43743 64 ft 8 kts 55°
2026-05-01 13:53 41.72173 -71.43696 64 ft 8 kts 33°
2026-05-01 13:53 41.72280 -71.43616 63 ft 11 kts 44°
2026-05-01 13:53 41.72342 -71.43544 66 ft 12 kts 34°
2026-05-01 13:54 41.72412 -71.43484 62 ft 12 kts 31°
2026-05-01 13:54 41.72481 -71.43428 61 ft 11 kts 36°
2026-05-01 13:54 41.72544 -71.43373 57 ft 11 kts 32°
2026-05-01 13:54 41.72605 -71.43319 64 ft 10 kts 33°
2026-05-01 13:55 41.72663 -71.43269 63 ft 10 kts 33°
2026-05-01 13:55 41.72725 -71.43216 56 ft 12 kts 30°
2026-05-01 13:55 41.72796 -71.43166 60 ft 11 kts 10°
2026-05-01 13:55 41.72857 -71.43223 64 ft 11 kts 304°
2026-05-01 13:56 41.72897 -71.43310 66 ft 11 kts 302°
2026-05-01 13:56 41.72872 -71.43391 59 ft 10 kts 207°
2026-05-01 13:56 41.72822 -71.43397 64 ft 4 kts 173°
2026-05-01 13:56 41.72805 -71.43394 62 ft 1 kts 173°
2026-05-01 13:57 41.72804 -71.43394 62 ft 0 kts 173°